Location: La Comballaz
(46.3780°N, 7.0817°E)
Time: 11:57:22
(UTC+00:00)

Meteor 1-16 Rocket - Pass Details

Date: 09 April 2020
Orbit: 790 x 907 km, 81.2° (Epoch: 02 June)

Event Time Altitude Azimuth Distance (km) Brightness Sun altitude
Rises 18:30:20 0° 177° (S) 3,309 7.1 -3.9°
Reaches altitude 10° 18:32:42 10° 174° (S) 2,395 6.4 -4.3°
Maximum altitude 18:38:01 60° 96° (E) 950 4.2 -5.2°
Drops below altitude 10° 18:43:32 10° 18° (NNE) 2,487 6.7 -6.1°
Sets 18:46:02 0° 15° (NNE) 3,446 7.4 -6.5°
